TimeCET,TemperatureF,Dew PointF,Humidity,Sea Level PressureIn,VisibilityMPH,Wind Direction,Wind SpeedMPH,Gust SpeedMPH,PrecipitationIn,Events,Conditions,WindDirDegrees,DateUTC
5:30 AM,39.2,28.4,65,29.68,5.6,NE,6.9,-,N/A,,Mostly Cloudy,50,2013-02-22 04:30:00
6:00 AM,39.2,30.2,70,29.68,5.6,NNE,4.6,-,N/A,,Mostly Cloudy,20,2013-02-22 05:00:00
6:30 AM,39.2,30.2,70,29.68,6.2,NE,5.8,-,N/A,,Mostly Cloudy,40,2013-02-22 05:30:00
7:00 AM,37.4,28.4,70,29.68,-9999.0,NNE,6.9,-,N/A,,Clear,30,2013-02-22 06:00:00
7:30 AM,37.4,28.4,70,29.68,-9999.0,NE,4.6,-,N/A,,Clear,40,2013-02-22 06:30:00
8:00 AM,37.4,28.4,70,29.71,-9999.0,NE,8.1,-,N/A,,Clear,40,2013-02-22 07:00:00
8:30 AM,37.4,28.4,70,29.71,-9999.0,NE,6.9,-,N/A,,Clear,50,2013-02-22 07:30:00
9:00 AM,35.6,28.4,75,29.74,-9999.0,NE,4.6,-,N/A,,Clear,40,2013-02-22 08:00:00
9:30 AM,35.6,26.6,70,29.74,-9999.0,NNE,3.5,-,N/A,,Clear,20,2013-02-22 08:30:00
10:00 AM,35.6,26.6,70,29.74,-9999.0,Variable,2.3,-,N/A,,Clear,0,2013-02-22 09:00:00
10:30 AM,37.4,28.4,70,29.74,-9999.0,NNW,3.5,-,N/A,,Clear,330,2013-02-22 09:30:00
11:00 AM,37.4,26.6,65,29.74,-9999.0,North,3.5,-,N/A,,Clear,360,2013-02-22 10:00:00
11:30 AM,37.4,28.4,70,29.74,-9999.0,North,6.9,-,N/A,,Clear,10,2013-02-22 10:30:00
12:00 PM,37.4,28.4,70,29.74,-9999.0,North,6.9,-,N/A,,Clear,10,2013-02-22 11:00:00
12:30 PM,39.2,28.4,65,29.74,-9999.0,North,6.9,-,N/A,,Clear,10,2013-02-22 11:30:00
1:00 PM,39.2,28.4,65,29.74,-9999.0,North,6.9,-,N/A,,Clear,10,2013-02-22 12:00:00
1:30 PM,39.2,28.4,65,29.74,-9999.0,North,8.1,-,N/A,,Clear,360,2013-02-22 12:30:00
2:00 PM,39.2,28.4,65,29.74,-9999.0,North,5.8,-,N/A,,Clear,360,2013-02-22 13:00:00
2:30 PM,39.2,30.2,70,29.71,-9999.0,NNE,6.9,-,N/A,,Clear,20,2013-02-22 13:30:00
3:00 PM,41.0,24.8,53,29.71,-9999.0,North,8.1,-,N/A,,Clear,10,2013-02-22 14:00:00
4:00 PM,39.2,26.6,61,29.71,-9999.0,North,4.6,-,N/A,,Clear,350,2013-02-22 15:00:00
4:30 PM,39.2,28.4,65,29.71,-9999.0,NNW,3.5,-,N/A,,Clear,340,2013-02-22 15:30:00
5:00 PM,39.2,28.4,65,29.68,-9999.0,Variable,4.6,-,N/A,,Clear,0,2013-02-22 16:00:00
5:30 PM,39.2,28.4,65,29.68,-9999.0,NNE,5.8,-,N/A,,Clear,20,2013-02-22 16:30:00
6:00 PM,39.2,28.4,65,29.68,-9999.0,North,3.5,-,N/A,,Clear,360,2013-02-22 17:00:00
6:30 PM,39.2,28.4,65,29.68,-9999.0,Variable,2.3,-,N/A,,Clear,0,2013-02-22 17:30:00
7:00 PM,39.2,28.4,65,29.68,-9999.0,Variable,2.3,-,N/A,,Clear,0,2013-02-22 18:00:00
7:30 PM,39.2,26.6,61,29.68,-9999.0,Variable,1.2,-,N/A,,Clear,0,2013-02-22 18:30:00
8:00 PM,39.2,26.6,61,29.68,-9999.0,Variable,1.2,-,N/A,,Clear,0,2013-02-22 19:00:00
8:30 PM,39.2,26.6,61,29.68,-9999.0,Variable,1.2,-,N/A,,Clear,0,2013-02-22 19:30:00
9:00 PM,39.2,28.4,65,29.68,-9999.0,Variable,2.3,-,N/A,,Clear,0,2013-02-22 20:00:00
9:30 PM,37.4,28.4,70,29.68,-9999.0,Variable,2.3,-,N/A,,Clear,0,2013-02-22 20:30:00